Overview Statistics Trail Chart Weather Telemetry Raw packets
 

This is the latest recevied weather packets stored in our database for station/object 4S6DRJ-13. If no packets are shown the sender has not sent any weather packets the latest 10 day(s).

<< 465 466 467 468 469 470 471 >>
Time Temp. Humidity Pressure Rain* Wind** Luminosity Snow
1787745805 28.33° C 83% 1008.7 hPa 0 mm 0 m/s 47 W/m² -
1787745744 28.33° C 83% 1008.8 hPa 0 mm 0.89 m/s, 243° 48 W/m² -
1787745683 28.33° C 83% 1008.8 hPa 0 mm 2.24 m/s, 231° 50 W/m² -
1787745622 28.33° C 83% 1008.7 hPa 0 mm 1.79 m/s, 215° 52 W/m² -
1787745560 28.33° C 83% 1008.7 hPa 0 mm 1.34 m/s, 231° 53 W/m² -
1787745500 28.33° C 83% 1008.7 hPa 0 mm 1.34 m/s, 226° 54 W/m² -
1787745439 28.33° C 83% 1008.6 hPa 0 mm 1.79 m/s, 236° 54 W/m² -
1787745378 28.33° C 83% 1008.7 hPa 0 mm 0.45 m/s, 195° 55 W/m² -
1787745317 28.33° C 83% 1008.8 hPa 0 mm 1.34 m/s, 208° 56 W/m² -
1787745256 28.33° C 83% 1008.6 hPa 0 mm 1.34 m/s, 233° 56 W/m² -
1787745195 28.33° C 83% 1008.7 hPa 0 mm 1.34 m/s, 195° 57 W/m² -
1787745136 28.33° C 83% 1008.8 hPa 0 mm 0.45 m/s, 241° 56 W/m² -
1787745073 28.33° C 83% 1008.9 hPa 0 mm 1.34 m/s, 283° 57 W/m² -
1787745012 28.33° C 83% 1008.9 hPa 0 mm 0 m/s 57 W/m² -
1787744951 28.33° C 83% 1008.9 hPa 0 mm 1.79 m/s, 245° 56 W/m² -
1787744889 28.33° C 83% 1008.8 hPa 0 mm 1.79 m/s, 230° 53 W/m² -
1787744829 28.33° C 83% 1008.7 hPa 0 mm 1.79 m/s, 230° 51 W/m² -
1787744768 28.33° C 83% 1008.8 hPa 0 mm 0.89 m/s, 216° 53 W/m² -
1787744707 28.33° C 83% 1008.7 hPa 0 mm 0.45 m/s, 287° 55 W/m² -
1787744646 28.33° C 82% 1008.8 hPa 0 mm 1.34 m/s, 258° 47 W/m² -
1787744585 28.33° C 82% 1008.8 hPa 0 mm 0.89 m/s, 219° 47 W/m² -
1787744524 28.33° C 82% 1008.8 hPa 0 mm 0.89 m/s, 267° 56 W/m² -
1787744463 28.33° C 82% 1008.8 hPa 0 mm 1.79 m/s, 231° 65 W/m² -
1787744402 28.89° C 82% 1008.8 hPa 0 mm 1.79 m/s, 235° 71 W/m² -
1787744340 28.89° C 82% 1008.8 hPa 0 mm 1.34 m/s, 346° 79 W/m² -

* Rain latest hour (hover to see other rain measurements)
** Current wind speed in m/s (hover to see current wind gust speed)